St. Marys, AK

6:24 PM AKST on November 16, 2019 (GMT -0900)
Saint Mary's

Weather History for PASM - September, 2019

Change the Weather History Date:

Saturday, September 7, 2019

  Actual Average Record
Temperature  
Mean Temperature 52 °F -  
Max Temperature 51 °F 50 °F 64 °F (1997)
Min Temperature 48 °F 38 °F 32 °F (2003)
Degree Days  
Heating Degree Days 14    
Growing Degree Days 2 (Base 50)    
Moisture  
Dew Point 49 °F    
Average Humidity 93    
Maximum Humidity 100    
Minimum Humidity 77    
Precipitation  
Precipitation 0.28 in - - ()
Sea Level Pressure  
Sea Level Pressure 29.55 in    
Wind  
Wind Speed 13 mph ()    
Max Wind Speed 22 mph    
Max Gust Speed 31 mph    
Visibility 7.8 miles    
Events Rain    
Averages and records for this station are not official NWS values.
T = Trace of Precipitation, MM = Missing Value Source: Averaged Metar Reports

Daily Weather History Graph

Daily Weather History Graph

Search for Another Location

Airport or City:

Astronomy

Sep. 07, 2019 Rise Set
Actual Time 7:58 AM AKDT 9:42 PM AKDT
Civil Twilight 7:11 AM AKDT 10:29 PM AKDT
Nautical Twilight 6:10 AM AKDT 11:29 PM AKDT
Astronomical Twilight 4:52 AM AKDT 12:44 AM AKDT
Moon 7:52 PM AKDT (9/7) 12:24 AM AKDT (9/7)
Length of Visible Light 15h 18m
Length of Day
13h 44m
Waxing Gibbous, 67% of the Moon is Illuminated
Sep 7
Waxing Gibbous
Sep 13
Full
Sep 21
Last Quarter
Sep 28
New
Oct 5
First Quarter

Hourly Weather History & Observations

Time (AKDT) Temp. Dew Point Humidity Pressure Visibility Wind Dir Wind Speed Gust Speed Precip Events Conditions
12:02 AM 50.0 °F 48.0 °F 93% 29.69 in 10.0 mi East 13.8 mph - 0.00 in Rain Light Rain
1:02 AM 50.0 °F 48.0 °F 93% 29.68 in 10.0 mi ESE 15.0 mph - 0.01 in Rain Light Rain
2:02 AM 48.9 °F 48.0 °F 97% 29.66 in 10.0 mi ESE 15.0 mph - 0.02 in Rain Light Rain
3:02 AM 48.0 °F 46.9 °F 96% 29.65 in 10.0 mi East 13.8 mph - 0.01 in Rain Light Rain
5:02 AM 48.0 °F 46.9 °F 96% 29.61 in 10.0 mi East 13.8 mph - 0.01 in   Overcast
6:02 AM 48.0 °F 46.9 °F 96% 29.59 in 10.0 mi East 13.8 mph - 0.00 in Rain Light Rain
7:02 AM 48.0 °F 46.9 °F 96% 29.57 in 10.0 mi East 15.0 mph 21.9 mph 0.00 in   Overcast
8:02 AM 48.0 °F 46.0 °F 93% 29.55 in 10.0 mi East 15.0 mph - N/A   Overcast
9:02 AM 48.0 °F 46.9 °F 96% 29.54 in 10.0 mi East 15.0 mph - N/A   Overcast
10:02 AM 48.9 °F 48.0 °F 97% 29.54 in 10.0 mi East 12.7 mph - 0.01 in Rain Light Rain
10:26 AM 48.2 °F 48.2 °F 100% 29.51 in 5.0 mi East 13.8 mph - 0.02 in Rain Light Rain
10:50 AM 48.2 °F 48.2 °F 100% 29.51 in 3.0 mi East 12.7 mph - 0.03 in Rain Light Rain
11:02 AM 48.2 °F 48.2 °F 100% 29.50 in 7.0 mi East 13.8 mph - 0.03 in Rain Light Rain
11:13 AM 50.0 °F 48.2 °F 94% 29.50 in 9.0 mi East 12.7 mph - 0.03 in Rain Light Rain
12:02 PM 52.0 °F 50.0 °F 93% 29.52 in 10.0 mi SE 15.0 mph 25.3 mph 0.04 in   Overcast
12:55 PM 53.6 °F 50.0 °F 88% 29.50 in 10.0 mi SE 13.8 mph 26.5 mph N/A   Overcast
1:02 PM 53.1 °F 50.0 °F 89% 29.52 in 7.0 mi SE 16.1 mph 26.5 mph 0.00 in Rain Light Rain
1:10 PM 51.8 °F 51.8 °F 100% 29.50 in 5.0 mi SE 13.8 mph 21.9 mph 0.00 in Rain Light Rain
1:18 PM 51.8 °F 51.8 °F 100% 29.50 in 10.0 mi SE 15.0 mph 21.9 mph 0.01 in Rain Light Rain
2:02 PM 53.1 °F 51.1 °F 93% 29.53 in 8.0 mi SSE 16.1 mph 28.8 mph 0.01 in Rain Light Rain
2:36 PM 53.6 °F 51.8 °F 94% 29.52 in 10.0 mi SSE 16.1 mph 26.5 mph 0.00 in   Mostly Cloudy
3:02 PM 55.4 °F 50.0 °F 82% 29.53 in 10.0 mi SSE 11.5 mph 26.5 mph 0.00 in Rain Light Rain
3:41 PM 53.6 °F 50.0 °F 88% 29.54 in 10.0 mi SSE 15.0 mph 20.7 mph 0.01 in   Overcast
4:02 PM 55.0 °F 48.9 °F 80% 29.57 in 10.0 mi South 15.0 mph 24.2 mph 0.01 in   Mostly Cloudy
4:16 PM 55.4 °F 48.2 °F 77% 29.54 in 10.0 mi SSE 15.0 mph 21.9 mph N/A   Mostly Cloudy
4:23 PM 55.4 °F 48.2 °F 77% 29.54 in 10.0 mi SSE 13.8 mph 20.7 mph N/A   Overcast
5:02 PM 55.4 °F 48.2 °F 77% 29.54 in 10.0 mi SSE 15.0 mph 25.3 mph N/A   Mostly Cloudy
6:02 PM 55.0 °F 48.0 °F 77% 29.57 in 10.0 mi SSE 20.7 mph 28.8 mph N/A   Overcast
6:49 PM 53.6 °F 48.2 °F 82% 29.54 in 10.0 mi SE 12.7 mph 23.0 mph 0.00 in Rain Light Rain
6:59 PM 53.6 °F 50.0 °F 88% 29.54 in 7.0 mi SE 12.7 mph 19.6 mph 0.00 in Rain Light Rain
7:02 PM 51.8 °F 50.0 °F 94% 29.54 in 5.0 mi SSE 15.0 mph 21.9 mph 0.02 in Rain Rain
7:09 PM 51.8 °F 51.8 °F 100% 29.54 in 6.0 mi SE 11.5 mph 21.9 mph 0.02 in Rain Light Rain
7:16 PM 52.0 °F 51.1 °F 97% 29.56 in 10.0 mi SSE 12.7 mph 20.7 mph 0.02 in   Overcast
7:46 PM 53.6 °F 51.8 °F 94% 29.53 in 8.0 mi SE 12.7 mph 20.7 mph 0.00 in Rain Light Rain
8:02 PM 51.8 °F 51.8 °F 100% 29.53 in 6.0 mi SSE 11.5 mph 18.4 mph 0.03 in Rain Light Rain
8:52 PM 51.8 °F 51.8 °F 100% 29.54 in 1.8 mi South 17.3 mph 27.6 mph 0.04 in Rain Light Rain
9:00 PM 51.8 °F 51.8 °F 100% 29.54 in 3.0 mi South 17.3 mph 24.2 mph 0.04 in Rain Light Rain
9:01 PM 52.0 °F 51.1 °F 97% 29.57 in 3.0 mi South 20.7 mph 27.6 mph 0.04 in Rain Light Rain
9:28 PM 51.8 °F 51.8 °F 100% 29.55 in 2.5 mi South 19.6 mph 28.8 mph 0.03 in Rain Light Rain
9:41 PM 51.8 °F 51.8 °F 100% 29.55 in 4.0 mi South 15.0 mph 24.2 mph 0.04 in Rain Light Rain
10:02 PM 51.1 °F 50.0 °F 96% 29.58 in 5.0 mi South 17.3 mph 25.3 mph 0.06 in Rain Rain
10:29 PM 51.8 °F 50.0 °F 94% 29.57 in 3.0 mi South 18.4 mph 28.8 mph 0.04 in Rain Light Rain
11:02 PM 51.1 °F 50.0 °F 96% 29.61 in 4.0 mi South 20.7 mph 31.1 mph 0.04 in Rain Light Rain
11:35 PM 51.8 °F 50.0 °F 94% 29.60 in 10.0 mi South 21.9 mph 31.1 mph 0.01 in   Overcast